| time (UTC) | temp F | wind direction | speed MPH | gust MPH | rain 1hr in | rain 24hr in | rain mn in | humidity % | barometer mb |
| 20260503022835 | 48 | 360 | 0.0 | 1.0 | 0.00 | 0.00 | 0.00 | 56 | 1016.7 |
| 20260503022319 | 48 | 360 | 0.0 | 1.0 | 0.00 | 0.00 | 0.00 | 56 | 1016.7 |
| 20260503021822 | 48 | 360 | 0.0 | 1.0 | 0.00 | 0.00 | 0.00 | 56 | 1016.6 |
| 20260503021350 | 49 | 360 | 0.0 | 1.0 | 0.00 | 0.00 | 0.00 | 55 | 1016.5 |
| 20260503020830 | 49 | 360 | 0.0 | 1.0 | 0.00 | 0.00 | 0.00 | 52 | 1016.6 |
| 20260503020354 | 49 | 360 | 0.0 | 1.0 | 0.00 | 0.00 | 0.00 | 50 | 1016.6 |
| 20260503015814 | 50 | 360 | 0.0 | 1.0 | 0.00 | 0.00 | 0.00 | 48 | 1016.5 |
| 20260503015343 | 50 | 360 | 0.0 | 1.0 | 0.00 | 0.00 | 0.00 | 47 | 1016.6 |
| 20260503014824 | 51 | 360 | 0.0 | 0.0 | 0.00 | 0.00 | 0.00 | 46 | 1016.6 |
| 20260503014333 | 51 | 360 | 0.0 | 0.0 | 0.00 | 0.00 | 0.00 | 45 | 1016.5 |
| 20260503013815 | 52 | 360 | 0.0 | 0.0 | 0.00 | 0.00 | 0.00 | 46 | 1016.5 |
| 20260503013319 | 52 | 360 | 0.0 | 0.0 | 0.00 | 0.00 | 0.00 | 44 | 1016.5 |
| 20260503012820 | 52 | 360 | 0.0 | 0.0 | 0.00 | 0.00 | 0.00 | 42 | 1016.5 |
| 20260503012327 | 53 | 360 | 0.0 | 0.0 | 0.00 | 0.00 | 0.00 | 40 | 1016.5 |
| 20260503011829 | 54 | 360 | 0.0 | 0.0 | 0.00 | 0.00 | 0.00 | 40 | 1016.5 |
| 20260503011318 | 54 | 360 | 0.0 | 0.0 | 0.00 | 0.00 | 0.00 | 41 | 1016.5 |
| 20260503010821 | 55 | 360 | 0.0 | 0.0 | 0.00 | 0.00 | 0.00 | 38 | 1016.5 |
| 20260503010320 | 55 | 229 | 0.0 | 0.0 | 0.00 | 0.00 | 0.00 | 35 | 1016.6 |
| 20260503005826 | 56 | 229 | 0.0 | 0.0 | 0.00 | 0.00 | 0.00 | 35 | 1016.6 |
| 20260503005326 | 56 | 229 | 0.0 | 1.0 | 0.00 | 0.00 | 0.00 | 36 | 1016.6 |
| 20260503004834 | 57 | 229 | 0.0 | 2.0 | 0.00 | 0.00 | 0.00 | 34 | 1016.5 |
| 20260503004336 | 57 | 253 | 0.0 | 2.0 | 0.00 | 0.00 | 0.00 | 33 | 1016.6 |
| 20260503003815 | 57 | 242 | 0.0 | 3.0 | 0.00 | 0.00 | 0.00 | 33 | 1016.6 |
| 20260503003322 | 57 | 229 | 0.0 | 3.0 | 0.00 | 0.00 | 0.00 | 32 | 1016.6 |
| 20260503002825 | 58 | 12 | 1.0 | 2.0 | 0.00 | 0.00 | 0.00 | 34 | 1016.7 |
| 20260503002334 | 58 | 175 | 0.0 | 1.0 | 0.00 | 0.00 | 0.00 | 34 | 1016.6 |
| 20260503001816 | 58 | 234 | 0.0 | 4.0 | 0.00 | 0.00 | 0.00 | 32 | 1016.6 |
| 20260503001318 | 58 | 231 | 1.0 | 4.0 | 0.00 | 0.00 | 0.00 | 31 | 1016.7 |
| 20260503000817 | 59 | 325 | 0.0 | 4.0 | 0.00 | 0.00 | 0.00 | 32 | 1016.6 |
| 20260503000343 | 59 | 242 | 1.0 | 4.0 | 0.00 | 0.00 | 0.00 | 31 | 1016.6 |
| 20260502235829 | 59 | 231 | 1.0 | 3.0 | 0.00 | 0.00 | 0.00 | 30 | 1016.6 |
| 20260502235330 | 59 | 196 | 0.0 | 2.0 | 0.00 | 0.00 | 0.00 | 31 | 1016.7 |
| 20260502234831 | 59 | 234 | 0.0 | 3.0 | 0.00 | 0.00 | 0.00 | 31 | 1016.8 |
| 20260502234339 | 59 | 227 | 1.0 | 3.0 | 0.00 | 0.00 | 0.00 | 30 | 1016.8 |
| 20260502233819 | 59 | 328 | 0.0 | 6.0 | 0.00 | 0.00 | 0.00 | 31 | 1016.9 |
| 20260502233320 | 59 | 312 | 2.0 | 6.0 | 0.00 | 0.00 | 0.00 | 30 | 1016.9 |
| 20260502232848 | 59 | 210 | 2.0 | 5.0 | 0.00 | 0.00 | 0.00 | 31 | 1016.9 |
| 20260502232328 | 59 | 201 | 2.0 | 4.0 | 0.00 | 0.00 | 0.00 | 30 | 1016.9 |
| 20260502231835 | 60 | 9 | 1.0 | 4.0 | 0.00 | 0.00 | 0.00 | 30 | 1016.9 |
| 20260502231317 | 60 | 230 | 1.0 | 4.0 | 0.00 | 0.00 | 0.00 | 31 | 1016.9 |
| 20260502230845 | 60 | 315 | 1.0 | 6.0 | 0.00 | 0.00 | 0.00 | 30 | 1017.0 |
| 20260502230323 | 60 | 85 | 1.0 | 6.0 | 0.00 | 0.00 | 0.00 | 30 | 1016.9 |
| 20260502225831 | 60 | 350 | 2.0 | 5.0 | 0.00 | 0.00 | 0.00 | 31 | 1017.0 |
| 20260502225333 | 60 | 295 | 1.0 | 5.0 | 0.00 | 0.00 | 0.00 | 29 | 1017.0 |
| 20260502224814 | 60 | 274 | 3.0 | 6.0 | 0.00 | 0.00 | 0.00 | 30 | 1017.1 |
| 20260502224320 | 60 | 311 | 2.0 | 6.0 | 0.00 | 0.00 | 0.00 | 29 | 1017.1 |
| 20260502223819 | 61 | 302 | 2.0 | 6.0 | 0.00 | 0.00 | 0.00 | 29 | 1017.0 |
| 20260502223322 | 61 | 304 | 2.0 | 5.0 | 0.00 | 0.00 | 0.00 | 27 | 1017.0 |
| 20260502222829 | 61 | 248 | 1.0 | 5.0 | 0.00 | 0.00 | 0.00 | 28 | 1017.1 |
| 20260502222330 | 61 | 313 | 1.0 | 6.0 | 0.00 | 0.00 | 0.00 | 31 | 1017.1 |
| 20260502221836 | 61 | 308 | 1.0 | 6.0 | 0.00 | 0.00 | 0.00 | 29 | 1017.0 |
| 20260502221316 | 61 | 253 | 2.0 | 6.0 | 0.00 | 0.00 | 0.00 | 29 | 1017.3 |
| 20260502220818 | 61 | 311 | 1.0 | 6.0 | 0.00 | 0.00 | 0.00 | 29 | 1017.3 |
| 20260502220317 | 61 | 302 | 2.0 | 6.0 | 0.00 | 0.00 | 0.00 | 29 | 1017.3 |
| 20260502215824 | 61 | 360 | 1.0 | 4.0 | 0.00 | 0.00 | 0.00 | 30 | 1017.3 |
| 20260502215353 | 61 | 303 | 1.0 | 4.0 | 0.00 | 0.00 | 0.00 | 29 | 1017.4 |
| 20260502214828 | 61 | 257 | 1.0 | 6.0 | 0.00 | 0.00 | 0.00 | 27 | 1017.4 |
| 20260502214329 | 61 | 216 | 3.0 | 6.0 | 0.00 | 0.00 | 0.00 | 28 | 1017.4 |
| 20260502213836 | 61 | 220 | 1.0 | 6.0 | 0.00 | 0.00 | 0.00 | 31 | 1017.4 |
| 20260502213315 | 61 | 287 | 1.0 | 6.0 | 0.00 | 0.00 | 0.00 | 27 | 1017.4 |
| 20260502212816 | 61 | 175 | 0.0 | 5.0 | 0.00 | 0.00 | 0.00 | 31 | 1017.5 |
| 20260502212326 | 61 | 324 | 2.0 | 5.0 | 0.00 | 0.00 | 0.00 | 31 | 1017.5 |
| 20260502211827 | 61 | 253 | 1.0 | 7.0 | 0.00 | 0.00 | 0.00 | 31 | 1017.5 |
| 20260502211327 | 61 | 214 | 2.0 | 7.0 | 0.00 | 0.00 | 0.00 | 30 | 1017.6 |
| 20260502210852 | 61 | 9 | 2.0 | 4.0 | 0.00 | 0.00 | 0.00 | 29 | 1017.7 |
| 20260502210338 | 61 | 309 | 1.0 | 8.0 | 0.00 | 0.00 | 0.00 | 30 | 1017.9 |
| 20260502205837 | 61 | 336 | 1.0 | 8.0 | 0.00 | 0.00 | 0.00 | 32 | 1017.9 |
| 20260502205317 | 61 | 261 | 2.0 | 6.0 | 0.00 | 0.00 | 0.00 | 30 | 1017.9 |
| 20260502204824 | 60 | 180 | 0.0 | 3.0 | 0.00 | 0.00 | 0.00 | 31 | 1018.0 |
| 20260502204326 | 60 | 269 | 0.0 | 3.0 | 0.00 | 0.00 | 0.00 | 28 | 1018.0 |
| 20260502203831 | 61 | 242 | 1.0 | 5.0 | 0.00 | 0.00 | 0.00 | 29 | 1018.1 |
| 20260502203330 | 61 | 196 | 2.0 | 5.0 | 0.00 | 0.00 | 0.00 | 30 | 1018.1 |
| 20260502202831 | 61 | 227 | 1.0 | 3.0 | 0.00 | 0.00 | 0.00 | 33 | 1018.1 |
| 20260502202337 | 60 | 179 | 1.0 | 6.0 | 0.00 | 0.00 | 0.00 | 32 | 1018.2 |
| 20260502201815 | 60 | 269 | 1.0 | 6.0 | 0.00 | 0.00 | 0.00 | 31 | 1018.3 |
| 20260502201316 | 60 | 207 | 2.0 | 5.0 | 0.00 | 0.00 | 0.00 | 31 | 1018.3 |
| 20260502200821 | 60 | 310 | 2.0 | 5.0 | 0.00 | 0.00 | 0.00 | 31 | 1018.4 |
| 20260502200342 | 61 | 268 | 1.0 | 5.0 | 0.00 | 0.00 | 0.00 | 30 | 1018.5 |
| 20260502195826 | 60 | 76 | 0.0 | 5.0 | 0.00 | 0.00 | 0.00 | 32 | 1018.5 |
| 20260502195327 | 60 | 294 | 1.0 | 4.0 | 0.00 | 0.00 | 0.00 | 29 | 1018.6 |
| 20260502194832 | 60 | 246 | 2.0 | 4.0 | 0.00 | 0.00 | 0.00 | 31 | 1018.6 |
| 20260502194330 | 60 | 281 | 1.0 | 4.0 | 0.00 | 0.00 | 0.00 | 30 | 1018.6 |
| 20260502193838 | 60 | 317 | 1.0 | 4.0 | 0.00 | 0.00 | 0.00 | 32 | 1018.6 |
| 20260502193316 | 59 | 20 | 0.0 | 3.0 | 0.00 | 0.00 | 0.00 | 31 | 1018.7 |
| 20260502192819 | 59 | 114 | 1.0 | 3.0 | 0.00 | 0.00 | 0.00 | 32 | 1018.8 |
| 20260502192327 | 60 | 349 | 1.0 | 4.0 | 0.00 | 0.00 | 0.00 | 31 | 1018.9 |
| 20260502191847 | 60 | 257 | 2.0 | 4.0 | 0.00 | 0.00 | 0.00 | 32 | 1019.0 |
| 20260502191331 | 59 | 360 | 1.0 | 3.0 | 0.00 | 0.00 | 0.00 | 36 | 1019.1 |
| 20260502190833 | 59 | 241 | 1.0 | 3.0 | 0.00 | 0.00 | 0.00 | 33 | 1019.2 |
| 20260502190340 | 58 | 229 | 1.0 | 5.0 | 0.00 | 0.00 | 0.00 | 34 | 1019.2 |
| 20260502185821 | 57 | 205 | 2.0 | 5.0 | 0.00 | 0.00 | 0.00 | 31 | 1019.2 |
| 20260502185319 | 58 | 240 | 0.0 | 2.0 | 0.00 | 0.00 | 0.00 | 31 | 1019.3 |
| 20260502184821 | 59 | 288 | 1.0 | 2.0 | 0.00 | 0.00 | 0.00 | 35 | 1019.3 |
| 20260502184329 | 59 | 336 | 1.0 | 2.0 | 0.00 | 0.00 | 0.00 | 32 | 1019.3 |
| 20260502183830 | 59 | 304 | 1.0 | 2.0 | 0.00 | 0.00 | 0.00 | 31 | 1019.4 |
| 20260502183338 | 59 | 107 | 0.0 | 1.0 | 0.00 | 0.00 | 0.00 | 37 | 1019.4 |
| 20260502182818 | 59 | 326 | 0.0 | 3.0 | 0.00 | 0.00 | 0.00 | 35 | 1019.4 |
| 20260502182337 | 59 | 321 | 1.0 | 3.0 | 0.00 | 0.00 | 0.00 | 35 | 1019.4 |
| 20260502181823 | 59 | 355 | 1.0 | 4.0 | 0.00 | 0.00 | 0.00 | 34 | 1019.5 |
| 20260502181325 | 58 | 73 | 0.0 | 3.0 | 0.00 | 0.00 | 0.00 | 32 | 1019.5 |
| 20260502180833 | 58 | 355 | 1.0 | 3.0 | 0.00 | 0.00 | 0.00 | 31 | 1019.7 |
| 20260502180314 | 58 | 240 | 1.0 | 5.0 | 0.00 | 0.00 | 0.00 | 31 | 1019.6 |
| 20260502170324 | 55 | 339 | 1.0 | 3.0 | 0.00 | 0.00 | 0.00 | 34 | 1020.2 |
| 20260502164320 | 55 | 232 | 2.0 | 4.0 | 0.00 | 0.00 | 0.00 | 35 | 1020.2 |
| 20260502163822 | 56 | 347 | 2.0 | 7.0 | 0.00 | 0.00 | 0.00 | 34 | 1020.3 |
| 20260502163330 | 56 | 360 | 1.0 | 7.0 | 0.00 | 0.00 | 0.00 | 35 | 1020.3 |
| 20260502162829 | 55 | 81 | 1.0 | 4.0 | 0.00 | 0.00 | 0.00 | 43 | 1020.3 |
| 20260502162328 | 55 | 177 | 2.0 | 4.0 | 0.00 | 0.00 | 0.00 | 36 | 1020.3 |
| 20260502161854 | 54 | 322 | 0.0 | 3.0 | 0.00 | 0.00 | 0.00 | 37 | 1020.4 |
| 20260502161321 | 54 | 346 | 0.0 | 2.0 | 0.00 | 0.00 | 0.00 | 39 | 1020.5 |
| 20260502160842 | 54 | 342 | 1.0 | 2.0 | 0.00 | 0.00 | 0.00 | 38 | 1020.5 |
| 20260502160326 | 54 | 147 | 0.0 | 2.0 | 0.00 | 0.00 | 0.00 | 35 | 1020.5 |
| 20260502152324 | 54 | 360 | 1.0 | 2.0 | 0.00 | 0.00 | 0.00 | 35 | 1020.5 |
| 20260502151824 | 54 | 360 | 0.0 | 3.0 | 0.00 | 0.00 | 0.00 | 43 | 1020.4 |
| 20260502151331 | 54 | 360 | 0.0 | 3.0 | 0.00 | 0.00 | 0.00 | 41 | 1020.4 |
| 20260502150830 | 54 | 223 | 0.0 | 3.0 | 0.00 | 0.00 | 0.00 | 43 | 1020.5 |
| 20260502150329 | 53 | 345 | 0.0 | 2.0 | 0.00 | 0.00 | 0.00 | 49 | 1020.4 |
| 20260502130317 | 44 | 360 | 0.0 | 2.0 | 0.00 | 0.00 | 0.00 | 78 | 1020.4 |
| 20260502123400 | 38 | 360 | 0.0 | 0.0 | 0.00 | 0.00 | 0.00 | 90 | 1020.3 |
| 20260502122821 | 38 | 360 | 0.0 | 0.0 | 0.00 | 0.00 | 0.00 | 91 | 1020.3 |
| 20260502122321 | 37 | 360 | 0.0 | 0.0 | 0.00 | 0.00 | 0.00 | 90 | 1020.3 |
| 20260502121829 | 36 | 360 | 0.0 | 0.0 | 0.00 | 0.00 | 0.00 | 90 | 1020.3 |
| 20260502121330 | 36 | 360 | 0.0 | 0.0 | 0.00 | 0.00 | 0.00 | 89 | 1020.2 |
| 20260502120839 | 36 | 360 | 0.0 | 0.0 | 0.00 | 0.00 | 0.00 | 89 | 1020.2 |
| 20260502120336 | 36 | 360 | 0.0 | 0.0 | 0.00 | 0.00 | 0.00 | 89 | 1020.1 |
| 20260502115821 | 36 | 360 | 0.0 | 0.0 | 0.00 | 0.00 | 0.00 | 89 | 1020.1 |
| 20260502115341 | 35 | 360 | 0.0 | 0.0 | 0.00 | 0.00 | 0.00 | 89 | 1020.0 |
| 20260502114828 | 35 | 360 | 0.0 | 0.0 | 0.00 | 0.00 | 0.00 | 89 | 1019.9 |
| 20260502114325 | 35 | 360 | 0.0 | 0.0 | 0.00 | 0.00 | 0.00 | 89 | 1019.9 |
| 20260502113828 | 35 | 360 | 0.0 | 0.0 | 0.00 | 0.00 | 0.00 | 89 | 1019.8 |
| 20260502113351 | 35 | 360 | 0.0 | 0.0 | 0.00 | 0.00 | 0.00 | 89 | 1019.7 |
| 20260502112838 | 35 | 360 | 0.0 | 0.0 | 0.00 | 0.00 | 0.00 | 89 | 1019.8 |
| 20260502112319 | 35 | 360 | 0.0 | 0.0 | 0.00 | 0.00 | 0.00 | 89 | 1019.8 |
| 20260502111821 | 35 | 360 | 0.0 | 0.0 | 0.00 | 0.00 | 0.00 | 88 | 1019.7 |
| 20260502111346 | 35 | 360 | 0.0 | 0.0 | 0.00 | 0.00 | 0.00 | 88 | 1019.7 |
| 20260502110851 | 35 | 360 | 0.0 | 0.0 | 0.00 | 0.00 | 0.00 | 88 | 1019.8 |
| 20260502110357 | 35 | 360 | 0.0 | 0.0 | 0.00 | 0.00 | 0.00 | 88 | 1019.7 |
| 20260502105816 | 35 | 360 | 0.0 | 0.0 | 0.00 | 0.00 | 0.00 | 88 | 1019.7 |
| 20260502105317 | 35 | 360 | 0.0 | 0.0 | 0.00 | 0.00 | 0.00 | 88 | 1019.6 |
| 20260502104819 | 35 | 360 | 0.0 | 0.0 | 0.00 | 0.00 | 0.00 | 88 | 1019.5 |
| 20260502104325 | 35 | 360 | 0.0 | 0.0 | 0.00 | 0.00 | 0.00 | 88 | 1019.5 |
| 20260502103825 | 36 | 360 | 0.0 | 0.0 | 0.00 | 0.00 | 0.00 | 88 | 1019.5 |
| 20260502103333 | 36 | 360 | 0.0 | 0.0 | 0.00 | 0.00 | 0.00 | 88 | 1019.5 |
| 20260502102816 | 36 | 360 | 0.0 | 0.0 | 0.00 | 0.00 | 0.00 | 87 | 1019.5 |
| 20260502102317 | 36 | 360 | 0.0 | 0.0 | 0.00 | 0.00 | 0.00 | 87 | 1019.5 |
| 20260502101819 | 36 | 360 | 0.0 | 0.0 | 0.00 | 0.00 | 0.00 | 87 | 1019.5 |
| 20260502101346 | 36 | 360 | 0.0 | 0.0 | 0.00 | 0.00 | 0.00 | 87 | 1019.4 |
| 20260502100825 | 36 | 360 | 0.0 | 0.0 | 0.00 | 0.00 | 0.00 | 87 | 1019.4 |
| 20260502100325 | 36 | 360 | 0.0 | 0.0 | 0.00 | 0.00 | 0.00 | 87 | 1019.5 |
| 20260502091330 | 38 | 360 | 0.0 | 0.0 | 0.00 | 0.00 | 0.00 | 85 | 1019.6 |
| 20260502090830 | 38 | 360 | 0.0 | 0.0 | 0.00 | 0.00 | 0.00 | 85 | 1019.6 |
| 20260502090336 | 39 | 360 | 0.0 | 0.0 | 0.00 | 0.00 | 0.00 | 84 | 1019.5 |
| 20260502071318 | 42 | 360 | 0.0 | 1.0 | 0.00 | 0.00 | 0.00 | 80 | 1019.0 |
| 20260502070816 | 42 | 360 | 0.0 | 1.0 | 0.00 | 0.00 | 0.00 | 80 | 1019.1 |
| 20260502070322 | 42 | 360 | 0.0 | 1.0 | 0.00 | 0.00 | 0.00 | 80 | 1019.1 |
| 20260502065824 | 42 | 360 | 0.0 | 1.0 | 0.00 | 0.00 | 0.00 | 81 | 1019.0 |
| 20260502065331 | 42 | 360 | 0.0 | 0.0 | 0.00 | 0.00 | 0.00 | 81 | 1019.1 |
| 20260502064833 | 42 | 360 | 0.0 | 1.0 | 0.00 | 0.00 | 0.00 | 81 | 1019.1 |
| 20260502064314 | 42 | 360 | 0.0 | 3.0 | 0.00 | 0.00 | 0.00 | 81 | 1019.1 |
| 20260502063841 | 42 | 360 | 0.0 | 3.0 | 0.00 | 0.00 | 0.00 | 81 | 1019.1 |
| 20260502063320 | 42 | 360 | 0.0 | 0.0 | 0.00 | 0.00 | 0.00 | 82 | 1019.0 |
| 20260502062828 | 42 | 360 | 0.0 | 1.0 | 0.00 | 0.00 | 0.00 | 82 | 1019.1 |
| 20260502062329 | 43 | 360 | 0.0 | 1.0 | 0.00 | 0.00 | 0.00 | 81 | 1019.0 |
| 20260502061857 | 43 | 360 | 0.0 | 0.0 | 0.00 | 0.00 | 0.00 | 81 | 1019.0 |
| 20260502061317 | 43 | 360 | 0.0 | 0.0 | 0.00 | 0.00 | 0.00 | 81 | 1019.1 |
| 20260502060817 | 43 | 360 | 0.0 | 0.0 | 0.00 | 0.00 | 0.00 | 81 | 1019.1 |
| 20260502060324 | 43 | 360 | 0.0 | 0.0 | 0.00 | 0.00 | 0.00 | 82 | 1019.1 |
| 20260502055843 | 43 | 360 | 0.0 | 0.0 | 0.00 | 0.00 | 0.00 | 82 | 1019.1 |
| 20260502055345 | 43 | 360 | 0.0 | 0.0 | 0.00 | 0.00 | 0.00 | 83 | 1019.0 |
| 20260502054830 | 42 | 360 | 0.0 | 0.0 | 0.00 | 0.00 | 0.00 | 83 | 1018.9 |
| 20260502054329 | 42 | 360 | 0.0 | 0.0 | 0.00 | 0.00 | 0.00 | 85 | 1018.8 |
| 20260502053831 | 42 | 360 | 0.0 | 0.0 | 0.00 | 0.00 | 0.00 | 85 | 1018.8 |
| 20260502053338 | 42 | 360 | 0.0 | 0.0 | 0.00 | 0.00 | 0.00 | 85 | 1018.8 |
| 20260502052818 | 42 | 360 | 0.0 | 0.0 | 0.00 | 0.00 | 0.00 | 86 | 1018.8 |
| 20260502052317 | 41 | 360 | 0.0 | 0.0 | 0.00 | 0.00 | 0.00 | 86 | 1018.8 |
| 20260502051826 | 41 | 360 | 0.0 | 1.0 | 0.00 | 0.00 | 0.00 | 85 | 1018.8 |
| 20260502051344 | 41 | 360 | 0.0 | 0.0 | 0.00 | 0.00 | 0.00 | 85 | 1018.8 |
| 20260502050828 | 41 | 360 | 0.0 | 0.0 | 0.00 | 0.00 | 0.00 | 85 | 1018.7 |
| 20260502050326 | 41 | 360 | 0.0 | 0.0 | 0.00 | 0.00 | 0.00 | 84 | 1018.6 |
| 20260502045827 | 41 | 360 | 0.0 | 0.0 | 0.00 | 0.00 | 0.00 | 84 | 1018.6 |
| 20260502045328 | 41 | 360 | 0.0 | 0.0 | 0.00 | 0.00 | 0.00 | 83 | 1018.6 |
| 20260502044829 | 41 | 360 | 0.0 | 0.0 | 0.00 | 0.00 | 0.00 | 83 | 1018.6 |
| 20260502044338 | 41 | 360 | 0.0 | 0.0 | 0.00 | 0.00 | 0.00 | 82 | 1018.5 |
| 20260502043820 | 42 | 360 | 0.0 | 0.0 | 0.00 | 0.00 | 0.00 | 82 | 1018.6 |
| 20260502043321 | 42 | 360 | 0.0 | 0.0 | 0.00 | 0.00 | 0.00 | 82 | 1018.6 |
| 20260502042830 | 42 | 360 | 0.0 | 0.0 | 0.00 | 0.00 | 0.00 | 82 | 1018.5 |
| 20260502042330 | 42 | 360 | 0.0 | 0.0 | 0.00 | 0.00 | 0.00 | 82 | 1018.4 |
| 20260502041828 | 42 | 360 | 0.0 | 0.0 | 0.00 | 0.00 | 0.00 | 81 | 1018.4 |
| 20260502041337 | 42 | 360 | 0.0 | 0.0 | 0.00 | 0.00 | 0.00 | 81 | 1018.3 |
| 20260502040837 | 43 | 360 | 0.0 | 0.0 | 0.00 | 0.00 | 0.00 | 81 | 1018.4 |
| 20260502040344 | 43 | 360 | 0.0 | 0.0 | 0.00 | 0.00 | 0.00 | 80 | 1018.4 |
| 20260502035846 | 43 | 360 | 0.0 | 0.0 | 0.00 | 0.00 | 0.00 | 80 | 1018.4 |
| 20260502035346 | 43 | 360 | 0.0 | 0.0 | 0.00 | 0.00 | 0.00 | 80 | 1018.4 |
| 20260502034831 | 43 | 360 | 0.0 | 0.0 | 0.00 | 0.00 | 0.00 | 80 | 1018.4 |
| 20260502034332 | 43 | 360 | 0.0 | 0.0 | 0.00 | 0.00 | 0.00 | 80 | 1018.1 |
| 20260502033814 | 43 | 360 | 0.0 | 0.0 | 0.00 | 0.00 | 0.00 | 80 | 1018.2 |
| 20260502033322 | 43 | 360 | 0.0 | 0.0 | 0.00 | 0.00 | 0.00 | 80 | 1018.2 |
| 20260502032820 | 43 | 360 | 0.0 | 0.0 | 0.00 | 0.00 | 0.00 | 79 | 1018.2 |
| 20260502032322 | 43 | 360 | 0.0 | 0.0 | 0.00 | 0.00 | 0.00 | 79 | 1018.2 |
| 20260502031829 | 43 | 360 | 0.0 | 0.0 | 0.00 | 0.00 | 0.00 | 78 | 1018.2 |
| 20260502031329 | 43 | 360 | 0.0 | 0.0 | 0.00 | 0.00 | 0.00 | 78 | 1018.2 |
| 20260502030817 | 43 | 360 | 0.0 | 0.0 | 0.00 | 0.00 | 0.00 | 77 | 1018.2 |
| 20260502030340 | 43 | 360 | 0.0 | 0.0 | 0.00 | 0.00 | 0.00 | 77 | 1018.2 |
| 20260502025820 | 43 | 360 | 0.0 | 0.0 | 0.00 | 0.00 | 0.00 | 76 | 1018.1 |
| 20260502025326 | 44 | 360 | 0.0 | 0.0 | 0.00 | 0.00 | 0.00 | 75 | 1018.1 |
| 20260502024853 | 44 | 360 | 0.0 | 0.0 | 0.00 | 0.00 | 0.00 | 76 | 1018.1 |
| 20260502024334 | 44 | 360 | 0.0 | 0.0 | 0.00 | 0.00 | 0.00 | 75 | 1018.0 |
| 20260502023814 | 44 | 360 | 0.0 | 0.0 | 0.00 | 0.00 | 0.00 | 75 | 1017.9 |
| 20260502023315 | 45 | 360 | 0.0 | 0.0 | 0.00 | 0.00 | 0.00 | 75 | 1017.9 |